Theta_e
303 303 304 304 304 304 305 305 305 304 304 307 306 313 314 303 301 313 313 316 312 305 299 302 299 300 302 304 302 302 299 298 299 298 299 296 299 297 296 296 294 296 295 295 294 295 292 292 291 292 294 294 298 299 301 300 299 297 295 296 299 298 288 286 287 291 293 295 297 298 298 296 293 294 295 294 290 292 289 288 289 285 287 285 285 281 286
303 303 303 303 303 304 304 304 305 305 304 305 308 311 307 305 306 307 310 315 310 301 293 293 294 297 299 300 300 302 300 299 297 296 298 296 297 296 295 296 297 294 296 294 292 295 287 292 291 291 294 293 301 300 299 300 296 296 296 292 297 288 292 290 285 284 287 290 293 293 297 296 293 291 293 295 294 294 294 293 293 285 287 287 284 279 285
302 302 302 302 303 303 303 304 304 304 304 305 308 307 308 307 308 307 306 311 308 297 299 295 293 295 295 296 295 297 296 299 300 298 296 298 296 295 294 296 297 295 297 295 295 295 292 290 294 294 294 294 299 299 299 299 296 300 300 299 298 291 290 288 281 278 276 276 278 282 284 287 290 293 293 294 292 292 290 285 287 283 287 288 285 284 290
302 302 302 302 302 303 303 303 303 303 304 304 308 309 308 300 292 301 302 304 302 303 305 301 298 294 296 292 295 295 294 297 299 298 297 298 297 295 295 295 295 293 293 292 291 291 295 292 291 292 291 294 296 297 297 298 297 302 301 299 297 290 292 290 287 284 282 285 287 292 291 289 285 288 290 291 292 293 292 290 285 282 286 285 287 287 288
302 302 301 302 302 302 303 303 303 303 303 304 306 311 310 302 297 295 292 297 302 300 301 300 299 293 297 289 294 293 295 296 296 299 293 297 297 296 296 295 293 293 293 292 291 292 292 294 293 293 293 295 296 299 298 298 300 301 298 298 295 291 285 288 288 287 287 289 288 290 290 287 288 288 288 290 290 291 290 286 284 289 285 281 288 290 287
301 301 301 301 301 302 302 302 302 302 302 303 312 304 304 294 298 300 300 293 290 293 295 298 295 296 296 293 296 294 294 295 292 296 297 298 299 293 294 294 295 294 293 293 288 291 291 292 289 294 294 293 295 294 297 295 299 300 296 298 293 287 284 288 288 287 289 290 290 291 290 289 289 289 289 288 289 289 286 286 289 289 284 281 286 289 287
301 301 301 301 301 301 302 302 302 301 301 304 311 299 303 301 298 301 305 294 296 296 297 299 296 295 295 293 295 292 292 292 295 295 295 296 296 296 288 292 293 294 294 293 290 291 286 286 292 292 292 292 292 291 293 296 298 296 295 295 296 291 286 289 289 287 288 289 290 290 289 288 288 288 289 289 289 289 289 289 289 289 288 289 289 288 288
300 300 300 300 301 301 301 302 302 301 301 308 306 301 299 297 295 295 299 298 296 298 299 299 296 294 297 291 295 293 292 292 294 295 294 291 294 297 293 292 294 294 294 292 289 292 292 293 288 294 293 292 293 291 293 292 295 295 293 293 295 290 285 290 289 285 285 288 289 290 289 288 286 287 287 287 287 287 288 288 288 289 288 289 288 287 286
300 300 300 300 301 301 301 301 301 300 301 307 304 302 301 302 306 300 294 292 295 297 297 295 294 292 293 291 294 295 294 293 294 294 297 294 292 293 291 293 294 294 294 293 292 294 294 293 294 294 294 289 294 290 291 294 291 293 292 293 293 292 287 290 288 283 282 287 287 287 287 287 285 285 287 287 286 284 287 285 289 286 284 287 287 285 286
300 300 300 300 300 301 301 301 301 300 301 305 304 300 304 303 306 306 299 292 295 293 296 296 294 290 295 295 295 293 293 294 294 289 294 295 294 293 293 293 291 291 291 291 294 296 295 294 295 295 295 296 295 295 294 294 291 290 290 293 289 290 287 285 285 281 280 285 287 286 285 284 280 281 285 288 288 288 289 290 290 290 290 285 284 284 290
299 299 299 299 300 300 301 301 301 300 301 300 300 302 302 298 297 300 300 292 292 294 294 294 293 294 295 296 294 295 293 294 294 289 289 295 295 298 297 294 292 290 291 294 297 298 297 297 297 296 295 294 294 294 294 294 293 292 290 290 290 290 288 285 286 280 280 284 284 286 281 274 276 286 290 290 287 288 286 287 289 291 291 288 290 291 293
299 299 299 299 299 300 301 301 301 300 299 301 303 303 303 303 301 300 294 289 290 294 292 290 293 296 295 294 293 293 292 293 293 295 291 294 296 297 295 293 292 286 294 298 297 297 297 297 296 295 294 293 292 292 292 291 292 294 293 290 288 287 287 285 287 282 280 283 284 279 273 275 286 291 292 292 292 291 289 290 290 291 292 292 291 291 292
299 299 299 299 299 300 301 301 300 300 300 301 302 300 304 305 300 298 296 293 289 292 290 292 295 294 296 295 294 294 295 295 295 295 295 293 293 294 295 293 291 292 298 296 296 294 290 289 289 290 290 291 292 292 291 291 291 292 292 293 290 286 285 285 284 284 284 280 279 272 274 285 290 291 292 294 292 291 290 288 290 291 291 293 291 293 294
298 298 298 299 299 299 300 300 300 300 300 300 299 301 303 303 298 297 295 290 289 293 295 292 293 295 296 294 293 294 294 293 294 295 292 295 293 293 295 296 296 299 297 296 292 291 287 287 283 285 286 288 288 287 290 291 292 292 292 292 292 290 288 286 282 286 278 279 279 279 285 285 286 287 288 289 287 289 287 282 287 293 294 293 291 293 295
298 298 298 299 299 299 300 300 300 300 300 300 300 303 303 303 300 297 297 295 288 291 293 287 292 294 295 293 292 290 291 292 291 290 294 295 293 295 296 297 298 297 298 294 290 290 286 285 281 280 282 281 278 281 289 286 291 293 293 293 293 292 286 287 282 281 284 279 277 278 277 274 280 288 295 297 297 296 295 289 285 293 294 295 294 292 294
298 298 298 299 299 299 299 300 300 300 299 299 300 300 302 303 303 300 297 293 291 285 291 295 296 294 292 292 292 290 288 289 290 291 291 292 292 295 297 298 299 298 295 292 291 287 285 282 279 279 277 279 284 282 281 286 285 290 292 292 292 292 292 289 285 282 282 280 276 276 274 278 286 288 293 294 295 295 294 287 282 291 293 294 293 293 294
298 298 298 299 299 299 299 299 300 300 299 299 297 298 300 304 301 298 295 294 294 288 296 296 297 296 293 292 294 292 292 288 290 286 285 286 290 291 293 296 298 295 292 290 289 286 283 282 283 282 283 285 281 281 285 284 283 284 289 290 290 288 287 286 283 281 282 280 277 276 280 279 287 292 292 294 296 294 289 276 278 290 293 294 294 293 293
298 298 298 299 299 299 299 299 299 300 300 300 298 297 299 304 302 300 296 294 290 290 295 299 295 291 290 291 288 292 294 293 291 291 287 289 290 290 291 293 292 295 296 287 287 284 282 282 279 280 279 286 287 286 278 283 281 282 283 284 284 284 285 285 280 281 281 281 279 281 281 288 292 292 294 294 296 291 279 274 283 292 293 293 294 294 294
298 298 298 299 299 299 299 299 299 300 300 300 299 299 299 301 301 300 296 293 292 287 295 298 296 294 296 298 296 294 293 292 290 286 286 286 288 292 292 293 294 286 292 287 287 283 281 282 286 283 280 283 286 280 285 281 281 286 285 282 282 283 283 284 284 281 280 281 278 278 282 288 293 295 294 294 288 278 277 288 294 293 292 294 295 294 295
298 298 299 299 299 299 298 299 299 299 300 300 299 295 297 301 302 301 295 290 292 290 293 293 295 293 296 293 291 290 291 291 292 288 287 284 292 292 289 285 291 291 289 289 282 286 282 280 282 285 282 282 284 287 283 284 288 284 284 286 282 283 280 279 280 282 282 281 278 277 274 285 293 291 289 293 283 284 290 292 293 295 295 295 294 295 296
298 298 299 299 299 299 298 299 299 299 300 300 299 296 294 300 301 302 300 295 291 286 289 297 297 294 295 293 295 294 292 289 290 288 289 289 292 289 280 281 287 287 284 285 281 282 284 281 283 283 285 284 285 285 280 281 283 289 287 285 284 288 280 280 282 285 278 277 275 276 283 289 295 292 284 286 290 292 293 293 291 294 295 294 295 296 297
298 297 298 299 299 298 298 299 299 300 300 299 298 297 293 298 301 302 301 299 292 288 291 295 297 295 296 297 297 297 295 293 293 294 290 287 292 289 289 290 289 289 289 289 285 284 285 284 285 282 280 282 286 281 283 279 278 285 289 288 279 288 283 284 280 285 282 280 283 287 291 291 293 293 292 292 293 294 294 294 293 293 294 297 295 295 296
298 298 298 298 298 299 298 298 299 299 299 299 298 296 293 296 298 301 300 293 295 295 296 295 296 296 298 298 300 300 300 300 298 297 295 290 287 289 288 288 288 293 291 291 286 286 285 285 282 285 282 283 282 280 282 282 280 283 281 288 286 290 290 290 287 284 289 290 290 292 291 292 292 293 294 293 293 295 297 297 295 296 296 296 295 295 296
298 298 298 298 298 299 299 299 299 299 298 298 298 295 294 296 298 298 296 294 291 288 291 295 292 289 292 292 296 300 299 298 298 297 299 296 286 287 291 292 293 291 289 290 292 288 286 286 285 286 280 284 284 280 278 278 280 283 283 282 286 289 290 289 284 287 283 278 289 289 290 291 292 292 293 294 294 295 296 296 297 296 297 297 297 296 297
298 298 298 297 297 298 299 299 299 299 299 298 298 297 297 296 298 298 294 286 287 287 282 286 288 294 296 297 297 295 296 298 299 299 298 297 293 288 286 292 294 289 288 292 294 290 289 283 284 283 279 286 284 279 284 280 280 286 280 282 284 283 291 284 284 284 282 282 287 289 291 292 292 292 291 293 294 295 295 296 296 297 299 298 297 297 296
298 298 298 297 297 297 298 299 300 299 299 299 298 295 294 294 298 299 297 295 293 288 283 283 288 297 298 296 294 296 299 298 297 297 297 296 296 295 293 294 293 296 294 293 292 287 286 285 285 284 281 282 288 281 281 285 283 286 282 281 286 287 288 280 284 282 284 287 288 288 289 290 291 292 294 295 295 295 296 297 297 296 298 298 299 299 298
298 298 297 297 298 298 299 299 299 299 299 299 298 297 295 296 298 296 293 292 288 284 286 284 289 293 295 293 295 297 297 297 297 296 295 294 294 295 294 292 291 292 291 290 291 288 287 285 284 281 284 284 288 285 285 283 284 282 281 285 288 286 282 285 284 280 280 281 284 288 283 283 288 291 292 295 297 296 294 295 294 296 296 297 297 297 297
297 297 297 297 298 299 299 299 299 299 298 298 298 297 298 296 297 298 298 296 290 283 284 284 285 290 295 292 296 296 297 297 296 295 295 295 295 294 293 292 291 290 289 288 284 285 285 282 281 286 286 287 284 282 287 288 287 283 283 284 288 284 285 285 282 280 280 286 288 290 289 289 290 292 294 294 295 294 293 294 294 296 295 298 296 295 294
297 297 297 297 298 299 299 299 298 298 298 297 297 296 296 298 299 300 299 299 297 290 288 288 290 289 284 289 295 294 296 296 295 294 294 294 294 293 293 292 291 291 290 288 287 286 285 285 287 285 284 289 285 282 283 279 279 278 282 286 288 289 290 288 288 287 288 290 290 291 289 288 290 293 294 295 296 294 294 295 295 297 297 297 296 295 294
296 296 297 297 298 299 299 298 297 297 297 297 295 293 290 292 299 299 301 300 298 295 286 283 281 285 293 292 291 293 294 295 295 294 294 292 292 292 292 292 291 292 291 288 287 284 286 286 287 290 291 293 284 283 280 281 279 281 287 288 289 290 290 291 291 289 287 291 292 292 292 291 292 293 295 296 297 297 295 295 297 297 297 298 295 295 296
297 297 298 298 298 299 298 298 297 297 297 296 294 287 287 284 293 302 300 300 300 295 289 287 283 288 287 292 293 292 293 294 293 293 293 293 293 293 293 293 292 292 287 288 287 287 288 285 285 287 291 290 287 283 281 280 279 281 286 287 288 288 289 289 291 292 292 292 293 293 293 294 295 293 293 295 297 298 297 296 298 297 298 298 296 296 295
298 298 298 299 298 298 298 298 297 298 297 295 292 290 292 293 296 300 300 300 299 293 287 282 282 283 283 287 292 295 293 293 293 294 293 294 291 293 293 293 290 292 290 287 288 287 285 287 285 286 286 289 288 283 283 281 279 280 286 287 289 289 290 291 292 293 293 294 293 290 290 291 293 291 291 295 296 297 296 297 298 299 297 297 298 297 296
298 298 298 298 299 299 299 298 298 298 297 299 299 299 299 300 298 298 300 299 295 289 291 285 280 282 281 286 291 293 294 293 291 291 289 293 289 292 289 293 292 291 294 287 285 283 287 286 287 284 287 290 284 283 282 280 282 286 288 288 289 290 290 292 293 294 293 294 293 288 288 290 291 294 295 295 296 297 297 297 297 298 297 297 296 296 296
298 298 299 299 299 300 299 300 299 298 297 295 292 295 299 298 299 296 299 298 293 293 290 284 281 280 281 290 284 290 293 288 287 289 284 291 291 290 286 289 289 286 290 286 287 286 287 286 284 285 288 286 286 283 279 282 286 287 288 289 290 290 290 291 293 292 292 293 294 293 294 295 295 295 295 295 295 296 297 297 297 296 295 296 295 297 296
298 299 299 299 299 300 300 300 298 297 294 295 294 299 299 296 297 298 298 295 286 285 285 285 285 280 280 282 281 286 293 289 285 288 284 288 293 287 287 284 286 282 284 293 286 286 284 284 286 283 282 287 283 279 281 284 287 288 288 288 290 291 290 289 290 291 292 293 294 293 295 295 294 293 293 294 293 294 294 295 297 297 295 294 295 296 296
298 299 299 300 300 300 299 299 297 296 293 294 295 298 298 298 298 299 299 299 293 285 283 284 284 281 281 277 278 285 292 286 289 289 288 287 286 290 287 285 280 284 289 286 281 285 283 288 285 279 284 281 279 282 283 286 287 287 288 288 289 290 289 289 290 291 293 294 294 294 294 294 293 292 293 294 294 295 295 296 296 296 296 295 295 297 297
299 299 300 300 299 296 293 293 297 296 293 296 298 298 298 298 300 299 297 294 296 296 287 284 282 282 282 281 284 286 288 280 287 284 286 284 282 285 285 283 280 284 283 282 282 281 285 291 285 280 280 279 281 287 288 288 288 289 289 291 291 292 291 292 293 293 292 292 293 292 292 292 292 292 292 293 293 294 294 294 294 294 293 295 297 296 296
300 300 299 298 294 289 288 291 294 296 299 299 298 296 295 293 288 289 290 287 291 291 288 288 283 285 288 283 279 288 286 283 287 282 283 285 282 282 285 282 282 282 276 279 282 288 286 283 281 280 281 286 288 289 289 289 289 291 292 292 292 292 293 291 292 292 290 289 289 290 290 291 291 292 292 292 293 292 290 293 295 297 297 295 296 296 295
299 298 295 293 290 287 288 292 301 300 299 298 297 289 287 290 287 284 284 287 287 284 288 285 282 285 284 282 284 290 286 282 281 283 279 284 281 277 283 277 282 282 278 278 281 291 279 280 281 281 280 284 284 287 290 292 292 293 293 293 294 293 292 292 293 292 290 289 290 291 291 289 289 290 291 292 293 294 295 295 296 297 293 295 295 294 294
295 290 288 288 287 290 296 298 299 296 295 289 290 288 283 287 283 280 287 282 282 284 286 282 287 286 286 283 282 282 290 284 279 279 280 282 288 279 282 281 282 280 274 275 279 287 280 277 280 279 278 284 284 287 290 291 290 291 291 292 292 293 294 293 293 293 293 292 293 292 292 292 291 291 291 291 292 293 294 296 296 294 296 295 294 294 294
292 290 290 287 291 293 295 297 297 295 289 286 285 286 284 281 285 285 283 280 279 281 287 285 286 285 287 287 286 281 288 290 288 287 284 279 285 285 280 276 283 277 275 275 283 283 281 279 278 277 278 283 285 287 290 290 290 291 292 292 294 294 294 293 293 293 292 292 292 291 291 291 290 290 291 291 292 293 295 295 295 295 295 294 294 295 297
292 292 294 295 295 296 296 293 292 287 287 287 282 279 282 282 284 282 282 276 278 282 284 284 281 282 283 285 285 286 285 291 287 285 282 278 284 281 278 280 282 276 273 280 284 282 280 276 276 278 282 284 286 288 289 289 290 291 291 292 293 293 293 292 292 293 293 291 290 290 290 290 290 289 290 290 291 293 293 293 293 294 294 295 296 296 295
297 297 297 294 292 290 289 284 287 286 279 278 278 275 280 277 279 278 279 283 287 284 284 290 287 289 289 290 286 289 285 289 284 284 282 279 285 284 280 278 277 273 278 285 282 278 276 275 276 279 283 285 285 286 289 290 290 291 291 292 292 294 293 293 292 292 292 292 290 289 289 289 289 289 290 290 290 291 292 292 292 293 294 295 295 295 295
296 295 291 289 285 286 287 276 287 282 279 280 277 272 276 276 278 281 279 280 284 283 285 282 283 283 280 287 284 284 285 287 288 285 282 284 281 278 278 275 276 282 285 279 278 275 276 279 280 282 284 285 287 288 289 289 290 289 290 291 292 293 292 293 293 292 291 292 291 290 289 289 288 289 289 289 289 288 290 291 292 292 293 293 293 293 295
289 287 286 284 280 284 282 274 285 280 274 277 280 278 278 275 278 280 279 285 285 282 286 286 285 284 282 287 287 285 285 281 286 280 278 281 278 279 276 275 281 282 278 275 276 277 278 277 282 284 284 284 285 288 289 289 288 288 288 290 290 291 292 291 291 291 291 291 291 290 288 288 288 287 287 287 288 289 288 289 291 291 292 292 292 293 294
286 283 283 278 275 280 279 276 278 275 281 282 281 282 281 282 282 282 286 287 285 285 284 285 285 286 283 286 281 280 284 284 280 280 281 281 276 274 281 284 282 276 276 276 274 273 275 279 282 283 284 284 285 286 288 289 290 291 290 289 289 291 291 291 291 291 291 291 290 290 289 289 288 288 287 288 288 288 289 290 291 291 291 290 291 291 292
286 286 285 283 277 280 283 276 278 281 283 284 285 285 284 285 286 286 287 287 285 286 286 287 287 285 281 282 282 283 284 284 279 281 282 276 276 279 283 278 273 274 272 271 272 275 278 281 283 284 284 284 285 287 289 290 291 290 290 291 291 291 291 291 292 291 291 291 291 290 290 289 289 288 288 287 287 289 289 290 290 291 290 290 291 291 292
281 285 284 276 274 279 277 281 286 286 286 286 285 286 286 287 285 284 287 287 287 287 286 286 282 283 282 286 285 281 281 282 278 279 281 279 281 277 275 275 275 276 277 274 274 279 281 282 284 284 285 285 286 288 289 290 290 291 291 291 291 291 291 291 291 291 291 291 290 290 290 290 289 288 287 287 287 288 289 290 290 290 290 290 290 290 290
286 284 279 279 281 281 281 284 283 281 284 286 286 286 285 284 284 285 287 288 287 287 287 285 283 282 279 283 281 280 277 281 275 276 281 278 274 272 272 270 272 272 277 279 279 281 282 284 284 285 285 285 287 289 290 290 289 289 290 291 290 291 291 291 291 291 291 291 291 291 290 290 290 289 289 289 287 288 289 289 289 289 290 289 289 289 289
283 282 284 282 281 282 284 285 283 281 283 284 284 284 285 284 284 286 289 286 286 286 286 285 286 282 281 281 276 278 277 280 278 278 276 274 275 277 275 271 274 274 277 282 282 283 284 285 285 284 285 285 286 288 289 290 289 290 291 291 291 291 291 291 291 291 291 291 291 291 291 291 290 290 289 289 290 290 290 290 290 289 289 289 289 289 288
286 283 283 286 281 280 283 279 279 279 281 282 283 284 284 284 284 285 289 287 287 285 283 280 281 280 278 277 276 272 275 281 277 276 276 275 279 277 274 273 276 280 281 284 285 285 285 285 284 284 284 284 286 287 290 290 290 291 291 291 291 291 291 292 291 291 291 291 291 289 290 290 290 291 291 291 290 290 290 289 290 290 290 290 290 289 289
282 279 280 284 286 285 285 285 285 284 284 285 284 285 286 284 286 287 288 287 285 281 279 282 281 278 276 274 277 280 281 278 275 276 274 278 280 276 277 278 280 282 283 284 284 285 285 285 285 284 285 286 286 288 290 290 290 291 290 291 291 291 291 291 290 291 291 291 291 291 291 291 291 291 291 290 289 288 287 287 288 289 289 289 289 290 290
Wind_Speed
27 28 28 29 29 29 29 28 26 25 27 14 11 9 6 5 5 5 4 2 6 6 7 7 4 5 1 4 8 6 5 5 5 6 5 6 6 5 5 7 8 7 6 8 9 10 8 8 9 10 10 11 9 3 5 9 4 4 5 11 6 6 2 7 12 13 15 18 18 19 19 18 16 14 13 13 13 13 12 12 8 7 8 9 6 8 8
27 27 28 29 29 29 29 29 28 24 20 10 11 7 6 7 7 1 6 1 4 7 4 5 5 8 7 6 7 7 7 6 9 7 7 5 5 7 6 8 7 9 9 9 8 7 6 5 10 10 8 7 7 4 2 6 4 5 5 4 7 3 2 5 7 8 8 10 10 11 11 10 6 7 8 11 11 9 8 9 7 7 9 12 10 11 9
27 27 27 28 29 30 30 29 28 26 20 15 7 6 7 9 6 2 4 4 6 7 6 6 4 7 10 9 10 10 8 5 2 6 8 8 8 5 6 7 6 8 7 8 9 10 10 8 9 12 10 10 3 5 3 3 3 8 9 9 7 4 6 5 7 8 9 8 5 3 4 9 7 8 9 11 13 12 9 7 6 9 10 13 9 9 9
26 27 27 27 28 29 30 29 29 28 22 21 10 5 7 5 5 5 6 7 7 5 3 5 4 5 7 5 7 10 9 7 4 3 7 6 10 7 8 9 11 11 10 9 9 10 9 10 7 8 8 9 7 2 7 3 8 12 9 5 4 4 7 8 9 10 11 12 12 13 15 10 8 14 15 15 14 14 12 8 8 10 9 10 11 13 12
27 26 27 27 28 29 29 30 30 30 28 21 5 6 4 7 4 4 6 9 3 4 6 3 5 5 7 4 6 9 9 8 8 11 3 2 2 6 6 8 8 6 8 8 9 10 13 12 14 14 13 11 12 12 12 11 7 14 4 2 4 6 7 11 13 17 18 18 19 18 16 16 16 17 17 17 16 14 14 9 12 12 12 15 11 12 11
27 27 26 27 27 28 29 30 30 31 30 29 8 6 4 4 4 6 4 3 5 7 4 9 9 11 11 8 6 9 9 8 7 5 6 7 6 6 5 7 7 8 9 7 6 9 11 11 9 13 12 12 12 13 13 11 13 8 6 4 7 5 7 11 13 17 18 18 18 17 15 15 16 18 18 20 19 16 13 10 15 15 10 16 14 16 15
26 27 27 27 27 27 28 29 30 31 32 22 6 7 5 6 6 1 5 5 8 10 11 10 11 11 10 7 8 8 10 11 9 8 7 10 7 5 5 8 11 12 12 11 10 8 7 6 10 9 10 11 10 10 9 12 11 5 9 10 7 7 9 12 13 17 19 18 16 15 17 16 18 19 20 20 17 14 13 15 16 17 16 16 17 17 16
25 26 26 27 26 27 28 29 29 30 33 20 5 8 6 6 6 4 9 8 10 11 7 7 8 9 5 4 6 6 5 8 8 9 9 6 9 6 10 12 12 12 11 9 9 9 7 7 4 11 13 12 8 10 10 10 10 11 13 10 6 9 8 9 12 11 15 16 14 16 15 15 18 22 24 22 18 18 17 16 13 16 16 17 17 13 15
25 25 25 26 25 26 26 28 28 29 29 8 9 6 7 6 4 3 7 8 7 10 8 7 7 6 8 7 9 9 9 9 8 9 7 8 8 8 10 11 12 12 15 12 11 11 5 7 11 11 11 10 9 8 7 10 11 12 10 8 10 10 8 11 11 11 13 12 13 14 16 17 19 22 22 15 13 13 12 11 9 9 11 12 10 11 14
23 24 24 25 26 26 26 26 27 27 25 8 8 7 8 8 6 6 6 6 6 9 8 10 7 6 5 6 9 6 9 9 11 7 6 11 11 9 8 8 6 9 13 15 10 8 10 9 10 11 12 14 15 14 15 14 12 9 11 11 9 9 7 8 9 13 15 13 11 15 11 10 14 17 6 8 16 17 16 17 17 15 12 11 13 12 12
22 23 23 23 24 26 26 25 25 26 17 10 9 7 8 8 8 8 6 7 6 8 8 7 6 3 6 7 10 11 9 10 9 8 4 6 8 7 9 11 8 7 8 8 10 13 11 10 12 12 13 15 17 16 16 19 17 15 12 10 9 12 12 10 8 11 13 12 10 11 10 14 17 3 1 7 9 9 12 11 13 16 14 9 12 12 13
22 22 22 23 24 24 23 23 24 24 19 11 9 6 7 8 7 6 4 6 7 9 8 7 8 9 8 7 10 11 10 8 9 9 11 10 11 10 11 11 9 6 7 9 10 10 12 12 14 15 17 18 19 21 22 21 19 16 15 14 10 10 9 10 10 10 13 9 7 9 14 19 5 9 11 12 14 16 18 18 18 18 16 13 13 15 14
21 21 21 22 23 23 23 23 23 22 22 13 10 7 7 8 7 6 4 5 6 8 7 9 14 12 12 14 9 9 7 8 10 10 10 10 11 10 9 8 8 10 9 13 12 12 15 13 12 14 17 17 18 21 24 24 22 20 16 15 14 10 10 9 9 10 10 12 9 12 17 10 14 14 14 13 14 14 15 15 15 15 14 14 15 13 16
20 20 20 21 21 21 21 23 22 22 22 17 10 8 6 8 7 7 4 4 6 8 10 11 11 7 11 11 9 10 10 10 11 9 10 9 11 11 11 9 11 11 6 10 11 8 8 7 8 8 9 10 11 13 16 20 20 20 21 20 17 16 13 11 11 9 13 11 13 14 13 18 18 12 6 7 3 6 6 7 8 10 10 14 13 11 9
18 19 19 20 20 20 20 20 20 21 21 21 11 8 5 7 7 6 6 5 7 9 10 5 9 11 11 10 11 9 9 9 10 9 11 10 9 9 11 11 8 6 9 8 8 7 6 6 9 8 7 7 6 7 7 9 10 16 19 19 19 17 15 8 11 9 11 13 14 12 11 15 11 6 8 11 10 8 7 5 7 10 9 8 9 10 11
18 18 19 19 20 19 19 19 19 19 19 20 11 10 5 7 6 5 6 5 5 7 2 10 12 9 9 9 10 10 7 6 7 8 8 7 10 9 8 9 6 7 4 4 6 6 6 7 9 8 8 7 10 8 5 8 8 9 12 13 16 17 18 13 12 12 10 12 14 12 12 10 9 7 9 10 8 5 5 4 9 4 8 7 7 6 8
17 18 17 18 18 18 18 18 18 18 17 18 10 9 6 9 7 7 7 6 6 8 12 14 9 9 8 9 8 6 7 4 5 4 6 7 10 9 11 10 5 2 5 6 6 6 7 8 9 10 10 11 10 8 11 9 10 10 11 14 14 12 9 11 14 14 13 13 14 15 8 9 6 6 6 6 6 6 1 4 2 8 7 6 5 5 7
16 17 17 17 17 17 17 17 17 16 17 17 10 8 6 5 6 7 6 6 6 9 9 6 5 6 7 8 8 9 8 7 7 7 7 10 11 8 9 9 6 0 4 5 6 7 9 8 9 8 10 9 11 11 10 9 10 8 9 9 8 7 8 9 13 13 14 13 12 11 9 8 2 7 7 8 4 2 4 12 5 7 8 9 10 11 10
16 17 16 17 16 16 16 16 16 16 16 16 11 8 4 7 7 6 6 7 6 7 11 14 12 11 10 10 9 8 8 8 7 4 5 5 5 5 10 11 8 6 4 5 6 6 7 9 8 8 9 9 8 9 9 10 9 9 12 11 11 10 7 8 11 13 14 12 13 12 9 1 4 2 2 4 1 5 9 6 5 9 11 6 5 7 10
17 16 16 16 16 15 15 14 15 15 15 15 11 7 8 8 5 4 5 6 7 10 12 13 9 10 9 8 8 7 9 10 8 8 7 8 7 9 5 6 5 7 7 6 7 6 7 9 9 7 9 10 9 5 8 11 12 12 10 12 10 9 8 9 10 7 8 8 10 9 11 2 2 4 4 5 3 5 8 9 10 9 8 8 10 9 8
16 15 15 15 15 15 14 14 15 14 14 14 11 7 7 4 4 3 3 6 7 9 8 3 12 15 11 10 10 11 9 9 9 9 9 10 8 6 4 4 5 2 3 3 6 6 4 8 7 6 6 8 9 8 10 9 12 12 12 10 11 9 9 9 9 6 11 10 9 7 3 1 5 4 5 2 7 10 11 10 10 10 6 8 8 8 8
16 16 15 14 15 14 14 14 14 14 13 13 13 8 7 5 5 4 5 5 7 8 10 16 15 13 14 12 11 10 11 12 12 9 8 7 7 8 8 10 10 7 5 5 5 6 6 5 5 8 9 8 6 9 10 11 11 9 10 9 9 4 6 4 9 7 3 5 8 10 11 10 9 9 11 12 13 13 14 13 12 8 7 6 6 7 9
16 16 16 15 15 14 13 14 14 13 13 12 10 6 7 7 7 5 5 7 7 9 10 12 12 12 13 16 14 9 10 4 5 7 10 9 8 7 10 9 10 7 6 6 10 9 9 9 9 7 8 5 7 9 11 9 10 8 11 9 12 13 14 10 8 9 11 13 15 13 14 14 11 8 9 12 12 9 8 8 6 5 7 9 9 13 12
16 16 16 15 14 14 14 14 14 14 13 12 9 7 7 7 8 8 6 6 6 10 10 9 8 5 6 9 3 5 6 8 11 8 5 7 6 6 8 9 8 8 6 5 5 5 5 5 7 6 10 7 7 10 11 10 10 9 11 10 8 13 9 5 5 8 10 8 8 11 15 15 13 14 12 12 15 5 6 6 3 3 3 4 1 1 7
17 16 16 15 15 14 14 14 15 15 13 12 10 8 7 7 6 5 6 5 5 6 8 8 10 11 5 1 4 5 7 8 6 8 8 7 9 9 10 10 11 8 8 8 4 5 4 7 6 6 11 8 5 11 8 10 11 9 11 11 11 7 4 8 10 12 10 12 15 16 15 15 15 13 13 6 9 9 8 5 5 7 5 3 4 3 5
17 16 16 15 15 15 14 15 15 14 13 13 12 8 7 7 7 8 7 7 6 3 7 7 7 11 9 8 8 10 12 12 12 13 12 10 13 13 12 9 11 9 10 8 7 9 8 8 7 9 9 9 7 8 9 10 13 12 13 12 11 13 13 11 11 12 14 16 18 17 17 17 15 12 8 1 3 1 2 5 8 9 8 5 5 6 6
17 17 16 15 14 15 16 17 15 14 14 14 10 9 9 8 7 7 6 5 5 6 6 8 6 10 11 16 15 12 12 11 9 9 11 13 12 8 11 11 10 10 11 11 9 7 6 8 9 10 9 8 6 9 10 11 11 10 12 13 12 13 14 14 13 13 12 11 11 7 7 10 11 10 11 6 5 3 3 5 10 11 4 3 5 6 7
17 16 16 15 15 16 17 16 15 15 14 15 11 9 8 9 8 7 6 6 6 6 8 9 10 12 15 19 13 8 9 11 11 10 10 12 12 10 11 12 12 12 10 9 9 8 9 10 11 7 7 9 8 9 9 10 11 12 13 13 10 12 14 9 8 8 11 14 15 10 9 11 14 14 12 12 10 7 6 8 12 7 2 3 4 5 6
16 16 15 14 15 16 17 16 16 16 16 14 9 9 9 9 8 6 6 6 6 7 7 8 10 10 9 9 13 12 12 12 11 11 10 10 10 11 11 12 11 10 10 8 9 9 10 10 6 8 8 6 5 8 5 9 9 12 12 13 13 13 15 16 13 10 14 17 13 11 10 13 14 17 17 14 9 9 8 8 7 6 5 6 3 2 5
16 16 16 17 18 17 17 16 17 16 14 9 7 6 6 2 2 1 3 5 5 2 5 6 8 5 9 10 13 12 12 12 9 9 10 10 10 11 11 10 9 10 10 8 7 9 8 8 7 10 10 7 4 3 8 7 10 13 14 14 15 15 13 12 10 7 11 13 13 11 10 11 11 15 16 13 8 3 5 6 3 3 2 1 0 2 3
17 17 17 18 18 18 18 18 17 15 12 7 4 3 4 1 4 5 6 2 2 2 4 5 9 8 10 10 10 11 11 9 9 9 9 9 9 10 10 9 10 9 8 8 8 9 6 9 7 8 9 10 9 8 10 9 11 14 14 13 12 14 14 12 11 14 14 14 12 11 9 10 9 12 16 10 3 6 6 7 5 4 2 3 2 1 1
19 19 19 19 18 19 20 18 16 12 7 7 6 4 5 4 1 2 3 4 4 5 5 8 7 6 5 6 7 7 10 11 10 8 7 6 8 7 9 7 7 6 7 6 6 5 9 9 8 10 11 8 6 7 10 11 14 15 15 14 14 15 14 15 13 10 11 13 14 15 12 11 9 10 11 8 7 7 9 11 8 4 4 5 3 2 3
20 19 20 20 21 20 18 16 14 8 7 9 15 13 3 6 5 2 4 4 5 3 3 5 7 5 5 6 10 10 7 6 6 4 7 2 7 4 6 5 6 8 3 2 4 4 3 6 7 10 11 8 6 8 9 13 15 15 17 16 15 16 16 12 11 10 9 8 5 8 11 12 11 11 12 13 14 12 12 8 4 10 9 10 8 5 3
21 21 22 22 22 21 18 15 14 10 9 5 5 7 4 3 4 2 3 3 4 5 3 4 5 7 7 6 10 4 3 6 7 5 6 4 4 6 6 7 3 6 4 6 6 8 8 7 9 10 8 7 3 6 11 15 17 19 18 18 17 13 14 12 5 7 7 9 9 10 12 12 12 11 10 9 8 12 14 4 6 6 9 7 5 7 6
23 23 22 24 22 20 20 17 8 6 5 5 2 5 5 4 7 1 3 3 3 3 3 5 4 7 7 6 7 6 4 6 7 6 7 6 5 8 6 7 4 6 4 3 6 6 8 7 4 7 10 7 7 9 10 14 16 16 16 15 8 3 8 11 11 7 7 8 9 9 11 11 11 11 10 7 4 9 12 9 9 12 10 4 3 8 7
24 25 24 23 24 18 11 9 7 6 4 1 2 5 7 6 7 6 6 5 5 4 5 5 4 8 7 9 8 4 7 8 6 7 7 5 6 5 5 4 8 7 6 6 9 7 9 4 3 8 5 8 9 8 10 13 16 16 14 12 11 10 11 12 11 11 8 8 9 8 8 7 7 9 10 8 7 10 10 10 5 3 5 3 6 8 6
27 26 27 24 11 4 6 5 5 2 6 5 5 1 7 8 4 5 6 6 6 5 6 6 8 8 6 8 5 3 4 7 6 7 7 6 7 3 6 5 9 5 5 6 7 8 8 6 6 8 7 9 9 10 13 12 11 10 11 11 11 13 13 12 3 3 5 3 5 7 5 6 7 6 8 8 9 9 6 7 5 6 7 3 8 8 7
26 28 14 9 6 3 1 3 4 2 6 6 5 5 4 4 2 2 2 5 5 5 5 5 8 7 6 5 8 5 6 7 7 7 6 4 5 5 3 5 5 4 8 6 7 8 6 5 6 9 9 9 10 9 9 9 7 6 8 8 7 8 7 4 6 5 3 4 6 9 9 9 7 5 5 7 8 9 4 5 6 4 6 6 5 7 7
22 9 6 6 5 3 5 5 3 4 6 4 1 2 2 2 2 3 3 3 2 5 4 5 7 6 5 6 7 5 6 7 8 7 7 3 4 6 3 7 3 4 7 7 4 7 3 5 6 6 9 8 9 7 7 9 10 9 7 5 1 5 4 3 3 8 7 8 8 9 9 8 8 8 8 8 8 8 8 6 6 6 4 6 7 7 8
8 8 5 5 4 7 9 10 10 8 5 4 2 1 4 3 4 5 1 4 4 3 3 5 4 6 5 8 8 9 5 5 7 8 8 8 2 6 3 5 4 4 7 7 5 2 6 6 4 5 6 1 4 6 9 10 9 8 7 6 5 6 6 8 5 6 9 9 9 9 9 8 7 7 6 8 9 9 7 4 4 5 8 8 8 8 6
7 7 6 5 8 8 8 8 7 5 2 2 2 3 2 5 3 2 3 5 4 4 2 6 5 7 6 7 7 9 5 3 5 4 5 7 3 4 5 6 2 5 5 6 2 1 4 6 5 5 5 9 10 10 11 8 6 3 5 5 4 5 8 10 10 10 9 9 9 9 9 9 8 7 8 10 9 9 5 8 8 10 10 9 8 8 8
9 9 8 9 10 10 10 7 5 3 2 2 2 5 3 4 2 4 3 4 3 2 3 3 5 5 7 8 8 7 5 3 4 4 4 6 3 4 5 5 2 4 5 2 4 6 5 6 5 4 4 6 6 9 9 5 4 5 6 6 6 6 9 11 11 11 11 10 9 9 9 9 9 8 8 7 8 8 10 13 14 14 14 14 13 11 11
21 18 12 8 6 6 3 5 2 2 2 2 2 4 3 5 3 4 4 3 2 3 3 5 7 6 6 4 7 4 4 4 3 3 4 4 2 3 5 4 4 6 6 6 5 5 7 5 4 4 6 7 9 6 4 5 5 6 6 6 5 7 9 10 11 11 11 11 12 11 10 10 10 10 10 9 9 12 13 13 14 14 14 14 13 12 11
10 9 7 3 4 4 1 4 2 1 3 2 3 5 4 6 4 3 4 3 2 4 4 6 7 8 8 4 6 5 3 2 2 2 4 3 4 4 3 5 5 3 4 6 5 5 4 2 2 6 7 7 7 8 7 6 5 5 6 7 8 8 9 9 9 10 11 10 10 10 10 11 10 10 9 10 12 12 11 13 12 13 14 13 12 10 6
6 4 3 3 2 2 1 2 2 3 5 5 3 5 4 7 6 5 6 4 5 7 8 7 8 7 8 6 5 5 1 4 1 4 4 3 4 4 4 5 4 4 5 6 5 4 1 3 6 7 7 8 8 8 7 4 3 4 4 7 7 6 6 8 9 9 9 9 9 8 8 9 9 8 10 10 10 11 12 13 11 12 11 12 11 9 8
5 5 4 4 3 2 3 4 2 4 3 2 4 4 7 7 7 7 6 6 7 7 7 7 8 9 9 6 6 5 3 4 4 3 4 3 5 5 3 4 4 6 4 5 5 5 6 7 9 9 8 8 8 7 4 2 4 4 5 7 5 6 7 8 8 9 9 9 9 9 8 8 9 8 9 10 10 11 12 13 12 12 12 13 12 12 13
4 2 3 3 5 4 3 5 5 4 5 6 7 7 7 7 7 7 6 7 6 6 7 8 7 8 8 6 4 4 4 2 4 3 3 5 4 3 2 4 4 3 5 5 5 7 8 9 8 7 8 9 9 5 3 0 1 4 5 6 6 7 9 9 9 10 11 11 12 11 11 10 10 10 10 12 12 12 13 13 13 13 12 11 11 13 14
6 3 3 3 3 3 5 6 7 9 8 8 7 6 7 6 7 7 6 6 6 6 8 8 8 5 6 3 5 6 5 3 4 4 2 3 3 4 3 3 4 3 2 4 8 8 9 8 8 7 7 5 4 3 2 3 4 5 6 6 8 9 9 9 10 11 12 13 12 12 11 11 11 11 12 12 12 11 10 10 10 11 11 12 13 13 12
3 3 4 4 3 3 6 7 9 9 8 7 6 6 6 7 7 7 6 6 7 7 6 7 5 4 5 3 5 5 5 2 4 3 2 3 3 3 3 6 7 6 2 2 8 9 8 7 7 7 7 7 5 2 1 4 3 4 4 8 9 9 9 9 9 10 12 12 12 12 12 11 11 11 11 11 12 11 10 10 10 10 10 10 10 11 12
4 5 5 6 7 8 9 9 9 9 8 7 5 5 3 5 6 7 5 5 4 6 5 7 4 4 4 4 4 4 5 3 2 2 4 5 2 2 3 6 4 6 8 7 6 7 6 5 6 6 7 7 6 3 1 4 6 7 5 5 5 8 10 12 12 13 12 12 12 13 13 11 11 11 12 12 10 10 10 10 10 10 9 8 9 9 10
2 3 5 5 9 9 7 8 8 8 8 7 6 5 5 7 7 7 4 6 7 6 5 5 2 3 4 4 4 4 2 3 5 5 4 5 2 4 5 7 7 7 8 8 7 5 3 3 3 4 6 8 7 6 3 4 6 6 7 6 4 9 10 12 12 12 12 11 12 12 12 12 11 11 11 11 11 11 10 9 8 8 7 6 6 7 7
3 6 7 6 9 10 11 10 9 9 10 9 9 7 6 8 6 6 3 5 6 6 6 5 4 4 3 4 3 4 4 3 3 4 6 1 2 3 4 5 7 7 8 7 6 4 2 2 2 2 4 6 8 9 6 4 4 5 7 8 8 8 9 9 9 9 9 9 11 11 12 11 11 10 10 10 11 10 9 8 8 8 7 6 6 6 6
Wind_Direction
4 2 359 357 355 354 353 354 353 357 354 3 343 320 293 298 346 101 37 48 316 297 279 276 270 265 325 347 298 331 296 278 306 303 291 297 322 304 288 301 303 291 298 306 307 309 304 302 281 296 303 310 56 120 334 67 282 297 288 278 69 355 278 282 271 276 270 267 264 259 258 266 269 262 265 264 263 266 270 268 277 271 271 269 274 258 275
4 2 360 357 356 354 352 350 350 350 9 350 316 307 328 326 313 56 152 328 314 293 303 323 327 330 341 317 306 300 294 292 289 273 298 326 318 311 319 306 293 292 292 290 285 300 294 293 286 278 266 266 93 63 91 27 315 307 24 349 33 308 236 262 285 287 281 274 266 262 256 260 296 316 317 328 327 336 329 325 315 287 264 266 273 271 268
5 4 1 359 356 354 351 349 346 347 349 355 318 316 316 294 266 251 360 22 339 306 353 327 323 331 311 321 315 317 302 290 256 314 300 313 284 268 261 274 302 287 302 287 280 281 284 299 284 290 300 298 109 251 179 167 268 75 64 29 354 297 290 294 273 274 277 272 269 288 12 359 330 296 299 292 291 289 292 282 286 276 276 278 272 276 286
5 4 3 1 358 355 353 348 345 343 345 354 344 319 303 1 317 3 330 348 311 260 141 288 311 316 325 331 311 302 298 293 223 201 283 278 281 266 293 286 286 280 281 279 276 276 269 269 280 268 265 276 278 229 133 154 255 110 94 54 335 298 294 275 271 268 268 275 291 311 323 307 304 298 294 289 286 285 285 286 274 262 277 275 269 272 288
6 5 3 2 360 357 354 351 346 343 336 348 317 292 270 310 330 1 328 327 260 342 321 338 339 318 354 300 305 297 297 305 303 123 298 288 342 311 293 297 290 287 290 292 295 281 274 275 289 282 275 263 263 276 291 284 107 127 229 150 296 263 266 263 268 266 266 277 281 289 295 289 284 283 282 283 280 278 276 269 270 290 290 274 266 273 288
7 5 4 3 1 359 356 353 349 344 338 336 323 301 9 333 19 328 54 305 311 322 308 356 321 309 298 286 282 270 279 293 291 261 241 237 257 290 277 263 271 267 254 265 281 291 296 293 283 284 276 281 280 276 265 279 284 237 250 182 196 242 265 260 260 262 267 272 280 283 282 281 284 280 276 274 274 274 272 272 279 281 271 272 286 287 275
7 7 5 4 2 1 359 356 350 347 337 330 319 358 5 9 333 343 53 303 302 305 317 319 308 301 291 288 297 291 280 277 278 283 293 313 328 297 290 273 265 279 289 273 249 250 283 277 279 276 285 288 303 287 302 298 314 304 225 238 264 270 248 260 255 266 265 265 273 284 285 285 280 276 273 272 274 281 286 283 280 275 272 273 273 277 277
7 7 6 6 4 3 1 359 356 348 341 327 35 35 349 20 347 336 341 309 286 271 257 281 294 283 271 243 262 294 291 284 296 305 305 272 268 270 276 293 289 273 266 264 260 264 289 7 339 332 315 291 287 297 287 281 268 301 290 279 237 198 244 249 270 278 277 274 269 264 269 275 274 269 267 268 274 280 276 272 267 264 261 262 267 272 274
7 7 6 6 6 5 3 1 360 352 344 355 6 47 14 331 324 330 308 310 311 320 299 277 280 300 290 264 248 255 307 322 336 300 322 317 311 303 284 289 296 319 308 303 309 304 19 359 312 311 298 278 281 276 274 274 270 254 278 292 276 244 269 265 265 272 271 278 283 280 271 265 263 263 261 268 273 267 262 263 263 266 264 270 277 267 263
6 6 6 6 7 6 4 3 0 358 341 2 359 19 359 339 343 328 300 285 306 297 289 280 262 256 310 13 324 340 308 306 313 307 298 281 271 294 334 345 337 301 306 288 277 301 340 335 313 299 297 282 269 263 267 270 278 287 276 266 273 271 264 264 271 273 271 274 280 286 300 306 285 265 280 260 252 256 261 258 256 251 254 257 257 260 274
6 6 5 5 6 6 5 4 2 3 359 14 352 356 12 1 337 326 313 290 287 283 289 280 295 352 28 323 320 325 309 303 303 293 293 302 307 306 298 310 303 299 277 284 315 304 291 283 284 295 288 282 275 272 272 272 270 268 268 276 271 267 262 263 265 265 275 285 286 289 285 264 252 31 261 268 279 279 264 251 248 251 249 254 261 277 286
4 4 4 5 5 5 5 5 2 2 4 346 321 328 18 341 322 305 311 304 297 305 294 284 295 305 290 332 322 312 312 305 299 307 301 304 304 315 313 291 287 277 305 320 295 290 295 290 293 272 260 261 263 263 264 263 260 250 245 247 252 256 267 267 262 263 270 279 268 261 250 250 301 292 279 276 273 270 270 276 276 275 274 284 291 280 275
3 2 2 3 3 3 5 4 2 1 2 350 338 349 359 346 321 322 311 301 289 301 312 311 328 322 319 285 242 255 273 310 302 294 289 288 289 292 291 288 264 259 285 286 298 298 279 292 295 281 274 269 261 255 250 248 248 247 250 245 246 242 245 254 254 258 270 269 258 253 250 279 288 285 291 290 285 284 293 289 279 279 277 278 273 264 274
0 0 359 0 0 1 4 4 360 359 359 354 336 322 338 2 354 340 337 323 299 303 319 315 292 331 353 353 348 324 320 292 273 265 260 254 266 268 263 268 290 300 322 352 348 330 308 297 284 294 285 273 262 249 243 241 238 238 236 231 232 245 247 240 249 236 252 257 259 259 290 285 278 286 283 301 317 342 324 295 291 299 310 297 300 328 348
359 359 358 359 359 360 2 4 0 358 356 352 327 320 1 8 8 332 322 302 295 305 283 286 349 338 334 334 324 310 294 303 315 312 308 306 290 288 310 310 301 327 326 285 264 270 284 289 275 286 278 263 261 266 272 259 254 235 229 226 226 223 230 217 238 241 241 255 264 269 266 264 269 285 29 54 44 29 38 2 295 287 301 9 349 334 334
358 357 357 356 356 357 358 2 1 356 357 353 338 337 15 41 337 325 314 310 301 292 16 4 332 345 325 315 303 294 287 281 279 275 263 285 317 306 243 235 244 241 189 329 301 285 268 268 273 271 270 270 276 284 270 288 278 279 278 265 230 224 226 231 235 252 251 253 258 258 261 267 284 340 62 58 74 34 280 260 279 37 40 44 23 357 319
355 355 355 354 355 354 354 356 358 357 353 358 342 332 333 19 352 339 320 299 281 266 305 308 340 322 294 282 305 307 3 342 332 320 311 298 289 295 290 290 261 235 225 242 260 257 251 249 254 259 269 275 274 268 282 268 269 272 278 274 261 249 236 234 234 240 242 249 251 253 254 270 308 72 125 111 87 93 78 290 270 51 341 13 337 318 300
351 352 352 352 351 351 350 351 352 359 352 349 339 327 315 352 348 331 305 291 294 288 267 297 342 298 305 342 320 314 317 307 307 317 306 317 317 305 355 339 302 215 31 274 269 265 265 267 267 269 269 272 283 287 269 287 278 278 266 262 263 263 264 256 256 257 258 256 262 262 263 269 21 86 99 124 105 11 270 260 283 1 325 324 333 331 332
347 347 348 348 348 346 349 348 348 349 351 349 341 314 325 356 336 327 306 295 278 270 299 333 334 322 311 303 286 294 267 260 244 260 284 297 268 347 335 308 310 283 226 258 241 254 268 265 269 270 276 275 269 267 279 263 269 271 270 269 269 269 277 271 269 261 263 261 264 260 268 75 130 207 132 108 127 244 258 319 348 303 299 332 13 312 297
344 343 346 349 345 342 345 347 345 347 348 347 341 325 316 308 324 337 322 314 314 291 300 296 307 333 345 331 326 321 324 319 306 305 292 276 304 322 313 293 243 239 251 257 260 249 258 263 265 270 266 272 265 303 284 277 275 269 276 275 275 275 275 270 264 274 274 271 273 284 274 101 196 72 276 140 264 288 318 311 298 308 321 312 297 294 299
341 339 344 348 344 342 343 344 344 346 346 341 340 322 315 316 293 294 300 303 303 300 292 301 355 329 321 312 307 309 308 294 305 306 307 304 343 352 270 260 344 38 278 274 277 271 278 280 281 277 284 287 291 293 278 293 280 277 281 285 279 295 278 268 261 257 271 265 259 260 326 32 187 251 293 266 253 276 282 295 294 284 278 291 299 302 313
340 340 339 344 343 339 340 342 344 343 342 341 331 313 297 315 312 349 334 312 281 272 283 305 307 297 287 278 268 261 271 280 283 296 307 307 311 289 282 285 289 298 298 301 278 278 266 273 279 274 276 284 299 277 299 288 278 289 291 303 276 214 256 298 291 324 300 294 291 302 325 321 291 285 283 278 285 301 305 293 288 313 316 320 298 304 300
340 339 337 336 338 337 337 340 338 339 337 337 330 315 312 316 312 332 301 285 279 277 282 279 277 277 270 261 248 257 265 261 296 271 251 253 256 268 275 267 263 265 271 270 273 278 287 299 291 318 310 288 289 292 284 274 283 279 275 260 270 288 289 316 316 285 303 291 283 289 281 283 303 320 307 307 307 334 360 1 352 15 9 328 325 322 315
337 335 332 330 331 334 334 333 336 333 333 335 329 312 307 311 308 309 299 290 282 293 288 260 260 282 316 345 350 210 217 223 216 225 293 340 292 274 265 272 281 282 278 322 51 314 302 296 278 291 279 280 283 269 273 274 271 294 298 291 283 287 319 351 280 293 294 276 282 286 292 296 284 276 281 288 290 328 6 7 335 300 255 246 207 287 307
333 333 332 329 326 328 329 329 329 329 328 325 319 306 293 279 269 272 283 290 304 318 305 313 299 280 281 134 290 271 253 251 245 236 223 218 243 254 268 290 326 317 306 302 332 303 273 269 272 253 262 262 262 270 274 283 276 279 280 286 295 288 73 284 278 279 267 274 283 287 287 281 277 271 276 315 13 5 355 323 311 292 276 262 254 231 271
330 330 329 327 324 324 328 328 328 327 326 324 318 305 300 291 301 298 285 278 277 272 280 296 315 316 297 293 295 317 323 320 316 307 288 251 216 219 242 251 264 280 280 277 279 269 270 265 262 264 267 270 249 265 272 281 292 301 286 280 282 295 307 280 286 281 281 280 279 284 297 297 294 307 314 318 273 150 306 310 311 299 271 271 253 245 282
327 326 325 323 323 323 323 324 326 326 324 322 310 300 288 284 275 267 268 279 301 276 229 251 274 293 337 325 310 300 286 276 267 261 271 285 290 239 203 216 242 261 261 260 249 259 269 265 262 264 260 268 297 283 284 281 281 282 280 276 281 282 272 286 286 279 279 284 293 303 289 298 299 293 289 276 153 214 231 234 247 243 254 247 288 306 324
325 322 319 318 318 320 321 322 326 328 323 321 306 289 279 270 260 255 261 258 246 269 306 310 308 313 316 283 274 283 302 297 288 267 241 240 243 256 261 257 257 256 253 260 267 254 252 256 257 259 267 272 272 267 270 282 283 273 264 268 269 268 281 295 296 300 299 306 304 305 298 280 282 290 285 280 293 291 279 287 298 316 216 285 312 334 314
322 319 317 315 318 319 320 321 323 325 324 315 305 294 273 247 243 239 233 240 241 258 269 282 290 283 288 333 339 311 287 260 244 251 261 262 264 260 257 256 259 265 270 271 268 266 263 263 271 269 260 283 286 276 292 275 270 268 270 282 278 275 279 273 268 268 270 280 300 315 310 303 307 309 303 296 292 299 303 302 304 332 312 284 297 331 317
323 322 319 317 315 317 314 315 318 315 319 313 300 290 288 128 103 225 247 235 247 256 273 280 290 292 315 307 299 295 279 275 279 279 274 271 265 259 259 258 251 252 258 260 265 263 264 274 263 266 277 305 278 291 271 270 269 268 272 276 282 288 288 286 291 267 277 291 293 286 285 291 297 286 281 288 328 339 295 285 302 301 275 178 149 310 324
322 319 317 314 311 308 309 310 310 311 301 287 280 284 299 161 111 43 23 330 353 279 277 279 280 300 287 274 280 288 295 293 286 289 290 295 284 276 275 271 261 253 253 250 244 247 255 256 265 263 260 240 247 267 274 280 276 273 272 277 280 285 288 286 278 277 286 286 288 290 271 262 261 282 288 297 311 303 302 275 201 193 282 242 157 337 206
320 317 312 309 306 306 307 308 307 304 278 250 253 306 350 353 46 36 12 317 308 280 279 288 293 285 298 292 282 297 293 308 318 316 295 290 279 274 268 265 284 269 268 269 265 262 248 247 244 258 262 260 255 260 263 261 265 268 280 283 284 284 284 285 287 290 287 301 318 306 297 297 310 298 288 282 246 238 245 265 245 171 212 220 145 144 168
315 310 306 304 305 304 306 306 304 295 274 302 323 300 251 89 68 328 243 270 269 266 278 271 274 297 281 303 316 304 333 323 295 281 277 262 279 299 275 242 239 257 188 236 239 252 252 266 266 260 260 254 251 262 262 257 256 271 282 284 282 284 285 298 320 317 331 332 348 298 290 290 289 283 290 299 306 303 285 294 3 156 205 165 168 160 164
311 309 307 305 302 304 303 303 298 290 266 258 246 238 142 123 159 165 305 265 269 277 260 269 273 274 283 312 296 356 355 316 314 313 302 296 289 281 287 304 265 271 198 227 240 253 259 255 254 260 264 251 226 263 261 263 266 268 271 277 279 293 310 291 276 298 310 297 274 270 293 309 303 295 293 306 324 328 300 310 319 316 264 220 184 168 170
311 309 307 302 298 298 302 298 279 228 252 257 280 67 99 58 359 291 250 284 263 230 224 239 252 279 288 289 287 315 358 302 302 331 301 298 306 290 303 281 297 285 299 315 284 266 275 268 299 288 265 270 257 248 251 262 268 272 276 281 299 322 284 293 297 299 288 291 307 302 297 310 312 308 300 307 327 269 271 261 233 226 236 230 158 149 156
310 305 301 298 295 290 278 249 236 249 220 208 14 168 153 172 215 232 244 237 240 283 278 277 273 270 288 292 306 331 359 300 300 301 297 317 303 302 294 287 282 272 295 274 277 277 272 268 229 261 278 270 254 251 263 271 282 295 306 301 294 293 294 283 290 301 317 320 319 319 321 327 330 319 306 288 304 289 269 267 270 295 295 321 120 134 144
309 302 299 297 286 244 233 242 193 42 0 317 320 232 209 232 219 235 232 241 216 215 258 282 273 271 293 306 306 306 336 299 327 306 320 310 313 323 292 297 285 303 282 271 271 275 284 284 256 268 259 263 269 266 275 291 307 302 293 300 307 301 300 303 309 337 339 357 16 5 359 356 4 4 315 302 265 260 320 320 319 315 306 106 129 151 151
306 301 293 281 278 273 261 88 40 349 265 252 249 260 182 188 239 203 202 221 218 208 224 234 254 276 289 293 290 308 290 304 332 313 312 323 315 300 322 290 296 306 287 293 292 292 273 255 257 271 273 266 278 302 325 311 286 290 311 326 334 340 329 324 355 21 349 340 16 14 9 11 8 347 339 328 342 332 307 303 304 324 94 117 121 130 124
292 296 319 356 307 314 7 27 108 213 269 294 208 322 242 184 232 224 212 207 185 221 216 240 264 282 281 288 296 330 325 320 308 318 306 343 321 300 304 301 315 304 292 290 298 65 316 289 279 277 284 321 320 308 285 284 304 310 319 328 338 48 11 90 77 79 55 42 29 24 16 8 356 345 342 336 330 318 310 339 27 85 102 101 107 107 117
360 340 339 316 319 348 338 335 350 312 289 277 209 233 284 222 227 272 291 282 262 247 172 252 256 275 316 316 316 309 345 328 319 315 317 310 297 297 314 290 305 296 289 288 307 354 294 300 312 308 296 336 303 325 329 329 339 1 354 10 28 71 66 67 45 42 57 50 38 33 25 20 11 359 348 351 342 336 350 69 119 98 98 104 108 114 115
344 332 315 322 337 325 312 304 299 279 268 257 250 225 239 280 267 291 280 277 275 281 243 286 314 309 313 311 308 303 347 315 285 295 296 292 329 291 295 289 316 285 286 286 4 328 275 282 281 291 341 354 338 328 327 355 8 6 27 36 87 73 74 81 68 57 54 50 41 35 28 24 17 11 2 358 357 342 54 75 78 93 109 118 112 91 77
318 301 297 299 290 285 285 262 226 257 261 236 264 269 256 271 280 265 212 230 289 313 314 19 311 308 314 327 316 322 305 340 317 289 291 297 331 304 304 294 293 284 287 326 337 287 287 283 302 321 341 335 325 317 316 344 20 15 37 30 16 74 88 79 70 61 54 53 46 40 35 32 35 27 11 6 16 16 53 67 68 64 62 62 73 82 83
287 276 264 270 275 267 262 287 237 193 245 244 239 285 289 285 284 290 319 307 355 306 316 301 287 312 293 301 288 284 301 321 307 314 302 301 308 270 290 297 296 275 300 305 283 298 293 307 325 340 336 328 332 294 315 23 31 38 38 51 54 61 69 71 72 69 64 56 52 48 43 47 42 33 24 18 23 46 49 51 56 63 64 73 78 80 83
295 293 268 242 263 282 302 274 117 201 266 236 245 263 274 286 292 298 279 295 340 285 320 319 320 326 317 319 303 311 297 240 178 276 287 303 303 296 297 285 288 318 310 289 290 289 324 303 342 337 338 335 338 341 10 29 45 61 59 64 68 66 65 73 74 73 69 66 58 46 44 46 44 34 29 31 32 38 46 52 45 52 55 55 60 52 36
312 311 318 312 275 292 352 288 249 201 244 262 239 267 287 289 305 301 301 347 315 310 322 306 314 304 295 302 306 290 316 303 317 268 280 302 287 307 299 295 312 295 297 301 310 302 308 326 4 356 358 343 333 339 6 29 46 64 74 82 73 62 54 66 73 70 71 72 68 54 39 34 40 39 39 39 36 36 41 48 43 49 50 54 51 56 60
308 314 317 304 296 238 229 260 274 274 268 258 265 273 283 300 313 306 325 333 311 313 309 316 300 297 301 320 304 312 318 297 299 305 314 298 294 284 299 307 297 289 285 296 311 328 335 343 355 346 348 342 326 317 322 22 40 78 99 87 87 90 87 82 76 81 79 77 72 67 57 51 50 44 46 42 40 41 41 43 44 49 53 49 40 38 41
293 283 271 288 278 266 225 260 261 261 294 296 294 301 307 307 309 304 310 306 299 319 307 296 299 312 305 314 311 301 283 291 296 299 296 286 283 305 298 292 304 292 307 305 321 338 341 353 356 354 349 330 318 305 278 310 69 89 82 79 79 88 94 97 100 96 92 84 77 70 68 62 58 57 56 53 47 44 42 42 40 41 46 46 44 44 44
288 295 295 270 263 257 246 250 261 273 277 285 291 284 285 295 292 292 313 323 327 301 298 324 318 319 302 324 295 298 315 325 306 288 269 273 279 277 314 291 272 299 347 316 330 341 343 352 350 343 325 296 295 275 308 37 73 92 86 84 82 77 72 80 84 87 88 87 84 80 74 70 65 60 59 59 57 49 47 45 37 36 37 42 43 42 38
287 291 280 269 262 272 283 302 306 293 300 295 297 288 281 286 294 306 321 332 312 310 328 309 314 315 295 321 303 309 306 318 292 311 303 283 290 299 299 300 319 316 340 329 329 343 349 346 341 325 328 341 340 324 53 115 89 50 52 92 91 101 102 93 91 90 89 89 89 87 88 87 83 75 71 67 63 57 56 55 50 43 37 38 39 41 41
264 253 244 251 275 279 276 273 267 273 279 288 295 294 304 292 295 305 335 316 312 307 306 294 270 255 301 327 310 306 296 311 323 301 279 280 293 306 283 294 307 317 325 343 340 337 349 347 338 335 341 337 329 326 2 51 82 96 78 61 106 116 111 109 99 93 90 89 88 89 88 88 87 87 85 84 88 87 75 68 63 59 48 40 41 47 45
243 251 259 256 261 278 299 295 301 303 303 299 303 306 313 302 302 304 348 313 304 305 293 295 317 297 301 300 308 297 313 345 295 288 297 307 331 291 309 314 319 333 321 324 331 347 10 352 330 337 337 331 328 320 322 87 97 131 148 175 144 101 98 98 98 99 100 100 97 94 89 83 85 91 97 100 98 98 98 95 89 81 74 64 54 47 48
251 247 258 253 250 253 258 269 272 275 285 292 293 295 295 287 310 308 320 296 296 292 302 312 314 320 315 294 302 313 314 291 290 306 290 296 68 312 317 312 321 328 330 333 338 359 5 330 326 306 319 327 321 319 306 159 187 116 91 87 94 100 97 92 93 93 94 95 94 92 95 95 96 99 104 101 95 87 84 85 93 99 102 102 104 104 95